Location: Newark
(46.7333°N, 6.6667°E)
Time: 20:25:34
(UTC+00:00)

N. Korean satellite - Pass Details

Date: 27 September 2020
Orbit: 452 x 505 km, 97.2° (Epoch: 28 October)

Event Time Altitude Azimuth Distance (km) Brightness Sun altitude
Rises 04:25:31 0° 24° (NNE) 2,592 10.8 -11.3°
Reaches altitude 10° 04:27:55 10° 39° (NE) 1,695 10.1 -10.9°
Maximum altitude 04:30:55 24° 94° (E) 1,059 9.3 -10.4°
Drops below altitude 10° 04:33:51 10° 149° (SSE) 1,657 9.6 -9.9°
Sets 04:36:10 0° 164° (SSE) 2,520 10.3 -9.5°
